Погода в Саруханлы

Турция     38°43′58″N   27°33′33″E
темп.,
°C
ветер,
м/с
пор.,
м/с
влажн.,
%
обл.,
%
осадки,
мм/ч
давл.,
гПа
погр.,
м
13 апреля, вт
вт1300:00+9ссз11695 0.0 102110
03:00+8ссв11735 0.0 102110
06:00+7всв11785 0.0 102010
09:00+11в116571 0.0 1021236
12:00+17в214635 0.0 1019720
15:00+20зсз234096 0.0 10171287
18:00+17зсз4756100 0.0 1017389
21:00+14зсз116172 0.0 101711
14 апреля, ср
ср1400:00+13юв116293 0.0 101715
03:00+11зюз116811 0.0 101611
06:00+9ю11705 0.0 101611
09:00+14в11605 0.0 1016252
12:00+20ююз3636100 0.0 10151666
15:00+21ююз6939100 0.0 10142006
18:00+18юз69501 0.0 10141413
21:00+13зюз237118 0.0 101651
15 апреля, чт
чт1500:00+11ююз017956 0.0 101611
03:00+10вюв0084100 0.0 101610
06:00+10в018617 0.0 101610
09:00+14в11705 0.0 1016292
12:00+18ссз03510 0.0 10161215
15:00+22юз363634 0.0 10142633
18:00+20зюз5647100 0.0 10131512
21:00
16 апреля, пт
пт1600:00+12зсз22895 0.0 101618
03:00+11зсз1191100 0.0 101610
06:00+10св1192100 0.0 101611
09:00+14всв227891 0.0 1017334
12:00+18в225696 0.0 10161251
15:00+21св1243100 0.0 10151555
18:00+20зсз3349100 0.0 1014972
21:00+14с1265100 0.0 101632
17 апреля, сб
сб1700:00+15всв2367100 0.1 101469
03:00+14з1173100 0.1 101518
06:00+12в2488100 1.5 1014166
09:00+13всв3590100 3.6 1015278
12:00+17в3669100 0.1 1012714
15:00+23вюв2447100 0.1 10091064
18:00+25ссв1137100 0.0 100620
21:00+19зсз2247100 0.0 100720